Showing default

COSMOS 1911, 18790

Orbit data source: Space-Track

COSMOS 1911, 18790 is a payload satellite owned by UNKS (CIS) in LEO that was launched on Fri, 15 Jan 1988 UTC via a TSIKLON-3 launch vehicle from the Plesetsk Missile And Space Complex (PKMTR). Payload-class satellites include a variety of spacecraft equipped with specific instruments for various scientific and technological missions. These include communications satellites like Starlink; space stations such as the ISS; scientific satellites like the Hubble; Earth observation satellites from companies like Planet Labs, Umbra, and HawkEye 360; GPS; miniature CubeSats for education and research; and military/defense satellites.

Loading next visibility...
Identifier
18790, 1988-002C
Orbit
LEO
Country
Flag of CISCIS
Related business
Manufacturer
NPO PM
Mission
Defense Communications
Bus & Motor
STRELA-3, Unknown motor
Mass
225 kg wet, 225 kg dry
Launch date (UTC)
1988-01-15 (38 years ago)
Launch vehicle
TSIKLON-3
Launch site
Plesetsk Missile And Space Complex (PKMTR)
Object type
Payload
Rocket body
Debris
Shape & HBR
Cyl, 0.8 m
Radar Cross Section
1.257 m², Large (>1 m²)

Expand to show TLE details & history
Last TLE update: 1 day ago

TLE from 1 day ago
0 COSMOS 1911
1 18790U 88002C   25305.52587510  .00000019  00000-0  47528-4 0  9991
2 18790  82.6128  33.7725 0006204 292.1186  78.2140 12.64377592744184
Epoch: 2025-11-01T12:37Z
TLE epoch observation values (Epoch: 2025-11-01T12:37:15.608Z)
Latitude
10.26515°
Longitude
164.74155°
Altitude
1,405.937 km
Speed
7.158 km/s
True Right ascension
02h 20m 26s
True Declination
10° 12' 36"
Sunlit
Object was in full shadow at epoch
Visualization orbit readout
Latitude
Unknown
Longitude
Unknown
Altitude
Unknown
Speed
Unknown
Apparent Right ascension
Unknown
Apparent Declination
Unknown
Sunlit
N/A
Visualization observer readout
Local Sidereal Time
12:28:12
Azimuth
Unknown
Elevation
Unknown
Doppler factor
Unknown
Orbital elements
Apogee altitude
1,407.071 km
Perigee altitude
1,397.417 km
Semi-major axis
7,780.381 km
Eccentricity
0.00062
Inclination
82.6128°
RAAN
33.7725°
Arg. of periapsis
292.1186°
True anomaly
78.2836°
Mean anomaly
78.214°
Eccentric anomaly
78.2488°
Mean motion
3.16258 °/min
Orbital period
113.83 mins
BSTAR
0.000047528
Loading maneuver chart data...
Computing Atmospheric mass density...
Loading historical data...
Loading historical data...
Loading historical data...
Loading historical data...
Loading historical data...
Loading historical data...
Loading historical data...

Documentation

Showing up to 5 results
|